GFSMA_500_spd_000.txt.gz
Wind_Speed
30 33 35 36 36 34 33 33 35 36 35 34 33 31 31 32 32 33 33 35 36 38 38 40 41 42 43 44 43 44 45 46 45 45 47 47 47 47 46 46 46 45 45
31 33 32 29 29 33 32 32 35 36 34 32 32 32 33 34 34 35 37 38 39 39 40 42 42 44 46 46 47 48 50 51 51 52 53 53 53 54 54 53 53 53 52
30 26 27 26 27 29 31 33 36 37 36 34 34 35 36 37 37 38 40 40 41 41 43 45 45 47 49 50 50 52 53 54 56 57 58 58 58 57 58 58 58 58 58
25 25 26 28 30 32 34 37 40 40 37 35 35 37 38 39 40 41 41 42 43 44 46 47 48 50 51 54 56 59 60 61 63 64 65 66 67 66 66 66 66 66 66
25 28 29 33 34 36 39 42 43 42 38 37 38 39 41 41 41 42 43 45 46 48 50 52 54 57 60 62 64 66 67 68 70 71 72 73 74 74 73 72 72 72 72
30 33 34 37 39 40 42 43 45 44 40 38 39 40 41 41 43 44 47 49 51 54 57 60 62 65 66 68 70 71 72 73 74 74 75 76 77 77 78 78 78 77 78
32 35 38 40 42 42 43 44 43 42 41 40 39 41 44 45 47 50 53 55 58 61 64 66 68 70 71 72 74 75 76 77 78 79 80 81 82 83 83 84 84 86 86
35 38 41 43 43 44 44 41 37 38 41 42 43 44 45 48 51 55 57 60 63 64 67 69 70 72 73 74 74 75 76 78 78 80 82 84 86 88 90 90 91 91 92
39 42 42 42 43 39 36 37 39 40 43 47 49 51 53 54 55 56 59 62 65 66 67 68 70 71 73 74 75 77 79 80 82 84 86 88 89 91 94 96 97 98 99
40 41 42 41 37 37 38 40 43 44 46 49 53 58 63 66 68 67 64 64 66 67 67 67 69 72 74 76 79 81 83 85 88 91 92 94 96 98 100 100 102 104 105
41 41 40 38 39 39 42 44 46 49 52 55 57 60 64 67 71 74 73 71 66 64 66 70 74 77 81 83 85 89 92 94 98 101 103 105 106 106 107 107 106 106 107
40 39 38 40 41 42 44 46 49 52 55 59 61 65 68 69 69 70 70 71 74 76 77 77 81 86 89 92 97 101 104 106 109 110 110 111 112 113 112 111 111 111 109
37 39 40 41 42 44 47 50 53 57 60 63 67 68 69 69 69 70 72 75 77 78 81 84 89 95 99 103 108 112 116 117 117 115 112 110 108 105 104 103 103 103 102
39 40 41 42 45 48 51 55 57 61 65 68 68 68 66 66 68 72 77 83 84 85 86 90 97 104 109 113 117 120 121 119 114 110 106 102 99 96 95 91 91 91 92
40 40 43 46 49 52 55 58 61 66 68 68 66 65 66 68 73 79 84 91 97 97 92 97 106 111 116 119 118 117 111 104 98 94 89 86 84 82 80 81 81 81 81
42 44 46 49 53 55 59 63 67 68 68 66 66 67 70 75 80 87 92 96 103 108 109 107 113 119 119 115 105 96 91 87 82 77 78 80 80 80 78 77 76 75 73
45 47 49 53 56 59 64 68 69 68 65 66 68 72 77 83 87 92 97 103 108 114 120 116 118 114 102 93 84 78 74 74 76 77 81 82 80 75 70 68 69 70 71
48 50 53 57 60 64 69 69 68 65 66 69 73 79 84 88 93 99 104 109 115 120 123 121 105 86 77 71 68 65 65 70 77 80 74 68 66 66 66 67 68 69 71
50 54 57 61 66 69 69 67 65 66 69 75 80 85 90 96 101 107 113 118 121 120 110 96 82 71 65 63 63 64 67 72 71 63 63 61 59 58 58 59 61 61 62
53 56 61 66 69 70 67 65 66 69 75 80 87 93 100 105 110 115 118 121 118 101 86 80 75 68 67 64 67 69 69 61 57 49 46 46 48 51 53 54 54 54 52
56 60 65 69 70 67 65 66 70 75 80 86 94 100 106 110 115 119 120 110 94 86 83 81 78 75 72 71 72 72 58 50 39 43 44 42 51 52 53 50 44 42 40
60 64 69 68 66 65 66 71 76 80 86 93 99 107 112 115 118 113 98 91 90 89 84 80 78 74 72 70 66 52 45 41 33 37 46 38 50 45 42 34 29 28 23
62 69 67 64 64 66 71 76 81 87 94 100 108 113 114 115 105 93 88 88 83 77 73 71 66 59 55 49 44 40 41 37 32 32 42 35 40 34 30 21 14 9 15
66 66 62 63 66 72 77 80 86 93 101 106 110 114 111 98 88 88 84 78 72 65 56 49 45 40 37 35 37 37 31 27 25 29 28 20 30 26 15 7 6 9 14
64 60 61 66 71 76 80 86 92 99 103 108 112 107 93 86 86 78 74 70 60 47 38 32 31 32 31 36 37 29 27 24 22 28 27 24 23 18 10 8 9 11 16
57 60 65 70 74 80 87 93 97 102 107 111 104 85 83 82 74 70 63 54 38 30 27 24 24 29 32 31 30 29 27 25 23 23 29 23 20 16 13 11 12 11 16

GFSMA_500_spd_003.txt.gz
Wind_Speed
30 33 33 33 32 30 30 27 29 30 31 33 35 36 35 34 33 34 35 36 37 37 39 40 41 42 43 44 45 45 46 47 47 47 47 47 48 48 49 49 49 48 48
32 33 33 31 26 25 26 27 27 29 32 36 38 38 37 35 35 36 37 39 40 40 41 42 43 43 44 45 48 49 48 48 49 50 50 51 51 52 53 53 54 55 54
32 32 31 26 25 26 28 30 31 33 36 38 38 38 37 37 37 38 40 41 42 44 44 44 44 45 46 46 48 49 50 51 53 54 55 57 58 59 59 59 59 60 59
29 32 26 25 27 30 33 34 37 39 40 41 44 42 40 40 41 42 43 43 44 45 46 47 48 49 50 51 53 55 57 60 62 63 64 65 67 68 68 67 68 68 68
31 32 31 29 31 35 37 37 39 41 43 44 46 45 41 40 42 43 44 45 47 47 49 51 53 54 56 59 61 63 64 65 66 68 69 70 71 72 72 73 74 74 74
31 32 29 30 33 36 39 42 45 45 45 43 41 40 40 40 42 45 46 48 50 52 54 57 59 61 62 65 66 68 69 70 71 71 72 73 73 74 76 76 78 79 79
27 27 29 32 37 40 42 43 47 46 39 34 35 38 41 42 44 46 49 53 56 57 60 62 64 66 67 69 70 71 71 72 72 72 73 74 75 75 76 77 79 80 82
26 29 33 37 39 41 43 46 44 37 37 38 39 40 41 44 48 51 53 56 60 61 64 66 68 69 69 68 68 68 69 70 72 73 74 75 76 77 79 80 81 82 83
30 34 38 39 41 43 46 42 38 39 41 44 44 46 47 48 50 52 56 59 62 64 65 66 65 64 65 65 66 69 72 75 76 79 80 81 82 83 85 85 86 88 89
35 39 40 41 43 45 43 40 41 42 44 46 50 53 56 60 60 58 56 60 62 62 62 61 62 65 68 71 74 77 80 82 84 85 87 89 89 91 93 94 95 97 98
40 41 42 42 43 43 41 42 43 45 48 50 53 56 59 62 67 67 64 62 58 57 59 62 66 69 74 78 82 84 87 90 92 95 97 99 102 104 106 107 108 108 107
42 41 41 42 41 41 42 44 46 50 52 56 59 61 64 65 66 69 69 69 69 66 67 69 73 77 82 86 90 93 97 99 103 106 110 113 116 119 120 120 119 117 116
40 41 41 40 41 42 44 47 51 54 58 60 63 66 68 70 70 69 69 70 71 71 75 79 84 88 93 97 101 104 108 112 115 119 122 124 125 126 125 123 121 119 118
40 41 40 41 43 45 48 51 55 58 60 64 67 69 70 71 69 70 72 74 76 76 78 84 91 98 103 107 111 115 117 120 123 124 122 119 115 110 106 103 102 100 99
40 40 41 43 45 48 52 55 58 61 65 67 70 72 71 69 70 71 75 81 85 87 86 92 100 105 110 114 119 124 127 128 125 116 103 95 89 82 80 80 81 82 83
40 42 44 46 49 52 54 58 62 66 68 72 74 72 70 70 72 76 81 86 93 98 101 101 108 115 121 126 128 127 119 105 91 84 81 77 72 71 72 75 77 78 80
42 44 46 49 51 54 58 63 66 69 73 75 73 71 72 73 77 82 88 95 102 109 114 110 118 124 126 124 114 102 88 79 75 71 67 66 67 71 77 77 74 73 73
44 47 50 52 55 58 62 65 69 75 76 72 71 72 75 80 83 88 95 102 108 115 123 127 124 117 105 89 88 83 78 75 73 68 65 66 71 73 68 67 65 64 63
48 50 53 55 59 60 65 69 75 75 71 72 73 77 81 85 90 96 103 109 116 122 125 119 108 94 91 87 83 79 76 75 73 70 67 67 66 62 59 60 61 59 56
50 53 56 58 60 63 69 74 74 70 71 73 78 82 87 92 99 104 110 118 124 122 108 97 93 89 83 77 75 69 59 59 58 57 54 54 54 57 60 62 60 56 52
53 57 58 59 63 69 73 73 70 70 73 77 81 87 93 100 106 112 119 122 114 99 91 86 81 79 75 66 57 48 43 36 34 39 41 46 51 53 55 58 58 56 49
59 54 57 62 68 72 73 69 70 73 76 81 87 92 100 106 112 118 116 104 91 86 81 77 72 63 51 43 37 33 31 30 27 37 40 32 40 39 45 47 44 38 32
54 58 62 67 72 69 67 69 72 75 82 88 95 102 106 112 116 110 95 86 79 74 67 60 52 44 39 37 33 31 30 26 26 27 26 22 31 33 34 33 28 20 15
58 61 66 70 64 65 68 71 75 81 88 97 102 107 111 113 106 90 84 76 70 57 48 47 43 35 34 31 28 28 26 23 23 26 26 24 28 29 27 24 20 13 8
61 65 66 63 64 67 69 75 80 87 93 99 105 110 110 100 84 80 71 62 51 43 40 34 36 34 30 31 30 25 21 18 19 26 28 30 30 25 26 22 15 12 10
64 60 61 63 65 68 74 81 86 93 98 103 107 103 90 81 76 68 56 52 41 33 31 31 28 28 31 30 27 26 22 20 23 26 34 29 30 28 21 26 17 12 12

GFSMA_500_spd_006.txt.gz
Wind_Speed
27 28 31 33 34 33 29 25 23 25 26 27 28 31 35 35 36 36 35 36 35 36 36 37 38 39 41 41 41 42 41 41 42 42 43 43 44 44 44 44 45 45 45
29 31 32 33 33 32 27 25 25 28 30 32 34 36 37 38 39 39 38 37 36 37 39 40 41 42 43 43 44 45 45 46 45 45 44 44 45 46 47 47 48 49 50
29 29 29 31 33 30 27 27 28 31 34 36 38 41 43 43 42 40 39 39 39 40 41 42 43 44 44 45 46 47 48 49 50 50 51 52 53 55 55 56 57 57 57
25 26 30 32 33 32 31 29 32 34 37 40 43 44 44 44 43 39 37 38 40 41 42 44 45 46 46 48 49 51 52 54 56 58 59 59 61 62 63 63 63 63 63
24 27 31 33 33 30 30 32 33 37 40 41 43 43 40 36 36 37 38 39 41 42 44 46 48 50 52 54 55 57 57 58 60 62 63 64 65 65 66 66 67 68 68
26 30 33 32 28 28 32 34 37 37 39 41 41 36 34 36 38 40 41 43 45 47 49 51 53 55 56 57 59 61 62 63 64 64 65 66 66 67 67 68 69 70 70
28 30 30 28 29 31 35 38 38 39 41 41 35 37 37 40 41 42 44 46 50 52 54 57 58 59 61 63 64 64 65 64 65 65 65 66 68 67 67 68 69 69 71
30 31 32 32 33 36 39 39 39 42 43 39 37 37 39 43 46 47 49 51 54 55 58 61 63 64 65 65 65 65 65 64 65 66 68 69 70 72 74 74 75 75 75
33 34 35 37 38 40 42 41 42 44 43 41 40 41 43 44 45 46 51 55 57 61 62 63 63 64 63 63 63 64 67 69 72 74 76 78 80 81 82 82 83 84 84
36 38 40 41 42 44 42 42 44 42 41 42 44 48 50 53 54 54 52 56 58 59 61 61 60 61 63 66 69 71 74 78 80 83 84 86 88 90 91 92 92 92 92
40 41 43 44 45 43 43 44 43 41 43 45 48 51 54 58 62 63 62 57 60 61 60 60 62 64 66 69 73 76 79 82 85 89 93 96 99 100 102 103 103 102 102
43 44 45 46 45 43 44 43 43 44 46 50 53 57 60 63 65 65 63 64 64 64 64 63 65 68 72 76 79 83 87 92 96 100 103 105 108 110 112 114 114 115 116
45 46 46 45 43 44 42 43 45 47 51 54 57 61 66 69 67 70 71 70 68 68 70 73 74 77 80 84 89 94 99 103 106 110 114 117 120 122 123 124 126 127 128
45 45 44 43 43 42 43 46 48 52 55 58 61 66 68 70 74 75 74 73 72 72 74 77 79 84 90 96 102 107 112 116 121 124 127 129 129 129 127 125 123 118 112
43 42 43 43 42 43 46 48 52 55 58 62 66 67 71 76 76 74 73 76 79 80 77 81 87 93 100 106 112 118 123 128 131 130 123 113 106 96 89 85 83 81 81
41 42 43 42 43 46 49 52 55 57 62 66 66 71 76 77 74 74 77 80 83 87 88 90 97 107 112 118 124 129 129 123 115 107 104 99 93 87 84 76 73 70 69
41 41 42 44 47 50 53 56 58 63 65 66 71 76 77 75 75 78 80 83 89 96 102 98 107 110 118 124 123 115 107 103 100 94 88 83 82 80 75 73 70 65 65
40 42 44 47 51 55 57 60 64 62 66 71 75 78 74 76 78 79 84 91 99 105 111 113 112 117 116 104 95 94 87 84 82 77 71 69 67 64 62 63 63 63 63
41 44 48 51 55 58 60 59 60 66 72 76 76 73 76 77 80 85 91 99 106 111 115 120 116 105 93 89 78 65 62 56 51 49 49 49 49 46 45 46 49 53 57
44 48 52 55 57 55 57 62 67 72 76 73 73 75 76 81 87 93 98 107 113 115 116 108 97 88 78 58 50 47 41 40 37 38 36 36 37 37 36 39 40 42 44
48 52 54 52 55 58 63 67 72 75 70 72 73 76 82 87 94 99 106 112 115 109 97 89 81 66 52 43 41 41 36 32 34 37 31 32 34 34 36 37 37 36 38
50 50 53 56 59 63 67 71 72 69 71 72 76 82 89 94 100 105 111 112 103 91 82 72 60 49 35 40 33 34 34 32 27 34 29 30 32 31 34 35 35 34 38
51 55 57 59 62 66 71 68 69 70 71 77 83 89 94 101 105 111 109 98 83 75 66 58 43 40 37 31 35 28 26 27 28 29 24 25 32 31 35 37 34 31 32
54 56 59 61 66 69 66 67 69 72 77 83 89 95 100 105 111 107 95 80 69 57 49 42 45 37 28 33 32 30 24 21 26 32 31 29 36 31 31 35 30 24 22
55 57 60 65 64 64 66 68 71 77 83 87 94 101 105 111 105 92 78 67 52 44 37 42 37 32 33 34 33 28 23 20 23 32 36 33 34 30 31 31 21 19 14
55 60 62 61 62 63 67 71 77 82 88 93 98 104 109 103 86 74 65 51 39 31 37 33 32 34 35 34 33 33 31 28 28 31 35 32 29 30 25 28 21 14 10

GFSMA_500_spd_009.txt.gz
Wind_Speed
28 26 25 25 27 30 31 32 28 23 23 24 24 27 29 31 34 36 37 37 37 37 36 35 35 36 37 38 38 38 39 40 41 40 40 40 40 40 40 40 40 40 40
26 25 25 27 30 30 31 30 28 25 26 28 29 32 34 36 39 41 42 41 40 38 37 37 38 38 39 39 40 42 43 44 44 45 44 44 44 45 45 44 44 45 45
23 23 25 27 28 30 31 31 29 29 29 31 33 36 39 38 40 41 41 38 36 35 35 37 38 39 40 41 42 44 44 45 46 47 48 49 49 51 52 53 53 53 53
22 23 24 25 27 31 31 31 30 28 30 33 36 38 39 40 39 34 31 32 34 35 37 39 40 41 41 43 44 46 48 48 50 52 54 54 54 56 58 58 59 60 61
23 24 24 26 29 32 33 30 28 28 32 36 38 38 41 40 36 33 34 36 38 39 40 42 44 45 47 49 50 52 53 53 54 56 57 57 59 61 62 63 63 63 63
24 25 25 28 30 33 30 29 29 31 36 39 39 40 41 39 37 36 37 40 42 45 47 49 51 53 54 54 55 57 57 58 59 60 61 61 63 64 65 65 66 66 66
27 26 27 28 30 31 31 32 34 36 38 38 40 42 40 38 38 39 42 44 47 49 52 54 55 57 58 60 60 59 60 61 62 64 64 65 65 66 66 66 66 67 67
29 29 29 30 32 33 35 37 39 41 40 39 40 39 40 40 41 42 45 48 50 53 56 58 60 61 61 60 61 63 63 64 65 66 68 69 70 71 72 72 73 72 73
32 33 33 34 35 37 39 41 44 45 43 42 42 42 40 39 41 44 47 52 55 57 60 62 62 62 64 65 65 66 67 68 70 72 73 75 76 77 79 80 81 82 82
36 37 38 38 39 40 43 45 47 46 45 45 44 42 44 45 47 47 47 50 54 60 60 62 64 65 65 65 66 69 71 73 75 77 79 81 83 85 86 86 87 88 89
38 39 39 40 42 44 46 49 49 47 47 45 44 46 48 51 54 56 55 56 59 59 63 65 65 63 63 64 67 70 73 76 80 84 87 89 91 93 94 96 97 99 101
38 40 40 42 43 46 50 50 49 48 46 45 47 49 52 54 57 61 63 64 62 63 65 65 64 63 66 69 72 76 80 82 85 88 92 95 98 102 105 108 110 112 114
40 41 42 43 46 48 50 49 48 47 47 48 51 54 56 58 62 66 67 66 67 70 71 71 72 73 74 74 78 83 88 92 96 100 103 107 110 113 116 119 121 124 126
41 41 42 44 46 48 47 47 48 48 49 52 55 57 60 64 68 68 69 73 73 71 72 75 75 75 77 82 90 92 96 101 105 110 115 119 121 123 125 127 128 130 129
41 40 41 44 45 46 46 48 49 50 53 56 59 61 64 65 66 71 74 76 75 75 73 72 77 83 88 95 100 106 111 115 119 120 120 118 115 112 109 105 103 103 104
38 39 41 43 44 47 48 48 50 53 56 59 62 63 62 68 72 75 75 74 77 76 72 77 82 93 100 106 111 117 121 119 114 108 103 101 97 91 86 85 86 86 87
38 39 41 43 46 47 48 50 54 57 60 61 59 64 69 72 75 73 75 77 78 82 83 81 92 99 107 114 117 117 108 101 92 84 74 68 67 66 62 58 57 59 64
39 40 42 44 46 48 51 54 57 58 57 62 65 68 72 73 72 76 78 80 84 89 95 96 100 108 115 113 104 91 86 76 68 62 60 59 56 51 46 43 41 43 46
39 41 42 44 47 50 54 55 56 59 62 66 69 72 71 73 75 77 81 86 91 97 103 108 110 115 106 90 78 68 56 51 53 52 51 49 45 39 37 37 35 35 35
40 40 43 46 49 52 54 57 60 63 66 69 71 70 73 75 77 82 87 92 98 103 110 115 114 98 81 69 55 43 46 45 47 49 47 43 40 38 39 37 34 33 31
40 42 46 49 52 54 58 61 63 65 68 68 70 72 74 78 83 88 92 97 105 110 115 109 92 77 63 46 43 43 37 40 40 42 36 36 39 38 43 44 45 40 34
41 45 48 52 54 58 60 63 65 68 67 70 70 74 78 84 88 92 98 106 112 111 100 83 72 59 44 43 35 31 37 36 32 40 29 30 43 41 45 44 41 35 32
45 48 50 54 57 59 61 65 66 67 68 70 73 78 83 87 94 99 104 111 101 87 79 71 56 41 40 34 29 32 32 30 33 36 31 28 39 37 41 40 39 34 24
47 50 54 56 58 61 64 64 66 66 70 73 78 83 88 94 100 105 109 94 80 72 63 53 38 39 34 30 32 30 29 25 26 33 35 33 38 38 39 39 38 31 21
50 52 54 57 61 62 63 64 65 68 73 78 83 88 94 99 105 105 91 77 67 55 46 35 37 35 31 33 32 31 29 28 23 29 33 33 37 33 33 34 35 27 19
49 52 57 59 60 62 62 65 68 72 76 82 87 93 99 104 99 84 74 64 50 40 32 37 36 31 33 34 35 36 32 30 26 24 32 30 33 26 28 25 21 19 17

GFSMA_500_spd_012.txt.gz
Wind_Speed
31 29 31 31 30 29 26 27 31 30 30 28 25 26 26 28 29 31 35 37 39 40 39 38 38 38 37 36 36 36 37 38 38 39 40 40 41 42 42 42 42 43 43
29 30 31 30 30 29 28 30 31 30 31 30 30 30 30 31 33 36 35 39 40 38 36 33 32 33 35 36 37 38 39 41 41 42 43 43 44 45 45 46 46 46 46
30 30 31 29 30 29 29 29 31 32 32 33 32 32 32 34 36 36 38 40 38 34 32 33 34 35 37 38 40 41 43 43 45 46 47 47 47 48 49 51 51 51 51
33 30 31 30 30 30 30 30 31 33 35 33 31 32 34 37 37 38 40 39 36 35 35 37 39 40 41 43 45 46 48 48 50 51 53 55 55 54 56 56 57 57 58
33 32 31 32 31 30 30 31 32 35 33 31 33 35 37 40 39 40 40 40 38 39 40 41 43 45 47 49 51 53 54 56 56 57 58 60 60 59 60 61 61 62 62
34 34 33 32 31 30 30 32 32 33 32 34 36 39 41 42 41 42 43 42 41 42 44 46 49 50 51 53 55 56 57 58 59 60 60 61 61 61 63 64 64 65 65
34 35 33 31 31 32 32 33 34 35 36 38 41 42 44 43 43 44 44 44 45 46 48 51 52 54 56 57 60 60 60 61 60 60 62 63 65 66 67 67 68 68 68
36 36 35 34 34 34 35 36 36 38 40 42 43 47 48 46 46 46 46 47 49 50 52 55 57 59 61 62 64 63 62 62 64 65 67 69 70 70 71 71 72 74 75
35 38 37 36 37 38 39 40 41 42 43 45 46 48 48 47 47 47 47 50 53 55 57 59 61 64 66 67 66 67 67 68 70 71 72 73 74 75 77 78 78 80 81
34 37 39 39 40 41 43 43 44 45 47 48 49 51 50 50 49 47 47 51 54 57 60 62 65 69 69 70 71 73 73 73 73 72 73 75 77 80 82 85 86 88 89
35 37 39 41 42 43 45 46 47 47 49 50 52 52 51 50 51 51 52 54 57 59 61 64 68 68 70 74 74 72 71 72 73 75 77 78 78 80 84 87 90 93 94
37 39 40 41 44 45 47 48 49 49 51 53 53 52 52 52 53 56 58 59 60 61 64 64 67 71 72 70 70 71 73 72 73 75 78 83 87 92 96 98 100 103 105
42 42 42 44 46 48 48 49 49 51 52 52 53 53 52 54 57 60 62 64 66 65 68 72 72 70 69 71 73 73 74 77 80 84 90 94 98 102 106 110 112 115 117
43 42 43 44 46 47 48 49 51 51 51 52 52 53 55 59 61 63 65 66 67 71 75 75 75 77 79 78 78 81 83 87 93 98 103 109 113 117 120 120 118 118 116
41 41 41 41 43 45 47 49 51 51 52 52 53 57 60 62 63 63 66 71 75 74 73 75 77 78 80 83 85 90 95 100 106 112 116 119 119 115 104 96 90 86 84
39 39 39 41 42 45 48 49 50 51 52 54 57 61 62 61 64 67 72 74 74 75 76 76 79 83 86 90 94 101 108 114 117 117 113 104 94 82 69 62 61 61 61
39 40 41 43 43 46 48 49 50 51 54 57 60 61 62 65 70 72 73 73 75 76 76 75 82 87 92 101 106 112 119 117 106 93 82 71 58 56 53 51 48 47 48
40 42 43 43 45 46 48 50 52 54 57 59 61 64 67 69 71 72 74 75 76 80 82 83 87 94 102 108 114 115 107 90 79 67 55 54 50 51 46 44 43 40 40
41 42 42 44 45 47 49 52 55 57 59 62 65 67 68 71 72 74 75 77 80 84 88 92 94 102 107 113 108 90 77 66 56 51 53 47 48 47 40 40 38 40 43
39 39 42 45 46 48 51 54 57 60 62 65 67 69 71 72 74 75 78 82 86 91 96 102 106 109 109 97 80 68 55 45 49 43 47 46 44 40 39 42 45 45 44
37 40 44 45 48 50 54 57 60 62 64 66 69 70 72 72 75 78 82 88 93 99 105 110 112 105 87 70 60 44 41 41 37 43 44 39 38 40 43 47 47 46 47
39 41 44 47 50 53 56 59 62 63 66 68 70 70 72 74 77 83 88 94 101 107 110 108 95 79 66 52 35 39 34 32 33 41 42 32 38 38 43 44 45 44 44
40 43 46 49 52 55 58 61 63 65 67 69 69 71 74 79 84 89 95 101 107 105 96 83 73 61 47 35 36 32 31 33 34 37 38 30 39 37 40 40 39 40 41
41 45 48 51 54 57 59 62 63 66 66 68 70 75 80 84 91 96 102 106 102 86 75 68 56 43 36 39 37 31 31 29 30 34 36 29 35 37 38 34 33 31 30
43 46 50 53 55 57 60 62 64 65 66 70 74 80 85 91 97 103 108 98 80 68 59 49 38 38 40 39 34 32 32 31 32 32 34 32 34 33 35 27 21 23 24
45 48 50 53 55 57 61 62 63 65 69 74 78 84 90 97 104 104 91 77 62 48 40 40 42 37 39 39 38 38 39 36 35 28 32 29 32 28 25 21 19 23 29

GFSMA_500_spd_015.txt.gz
Wind_Speed
28 29 32 34 35 35 35 34 35 32 30 34 31 31 29 30 30 29 29 29 33 34 36 36 36 36 34 30 30 33 35 37 37 37 38 39 40 41 42 42 42 42 43
28 28 30 33 35 35 35 36 35 32 33 34 33 33 33 33 33 34 32 34 34 36 38 38 36 34 33 32 33 34 35 36 38 39 41 42 43 44 44 45 46 46 46
32 30 31 34 36 35 35 35 34 33 33 33 34 35 36 34 33 33 35 37 37 38 39 39 37 36 36 37 38 39 41 42 43 45 46 47 48 48 49 50 51 50 51
34 33 34 36 36 36 35 36 35 35 34 34 35 37 35 32 33 35 37 40 40 40 41 42 39 39 39 41 42 43 45 48 49 51 52 54 56 56 55 56 57 57 56
35 36 36 37 37 36 36 37 36 35 35 33 34 33 33 34 36 38 39 41 42 42 43 43 43 42 43 45 47 50 52 52 54 55 56 58 59 61 60 59 61 62 61
37 39 38 36 38 38 37 37 36 36 35 35 35 35 36 38 40 41 42 44 44 46 46 46 45 46 47 50 52 54 55 56 58 60 61 61 61 62 61 60 61 62 62
38 40 38 37 39 39 39 37 37 37 38 37 38 38 41 43 43 45 45 47 47 48 49 49 49 50 52 55 56 57 59 61 62 62 63 62 62 62 62 62 63 64 66
37 39 39 39 39 40 40 40 40 40 41 42 42 42 44 46 47 49 50 51 51 51 52 52 53 55 57 59 60 61 63 65 65 66 65 65 65 66 67 70 71 72 72
38 38 38 39 40 40 42 42 43 43 44 46 45 46 46 48 49 50 51 52 53 53 54 54 57 60 62 63 66 67 68 69 70 69 70 71 73 74 74 74 75 75 75
38 37 38 39 40 41 43 45 47 47 47 47 47 48 49 50 51 51 51 53 53 54 56 58 61 64 67 69 71 72 71 72 74 74 74 73 73 75 77 78 79 81 82
40 38 38 41 42 42 43 45 47 47 48 49 50 50 50 51 53 54 52 53 55 56 59 60 62 64 66 68 69 71 75 75 75 74 74 75 76 77 78 80 81 82 84
39 40 40 42 44 45 46 47 49 49 49 50 51 51 52 53 54 56 57 55 56 58 63 66 65 65 65 70 74 75 74 74 75 76 76 76 78 80 82 85 88 90 93
37 39 42 44 46 48 49 49 49 48 48 49 50 51 52 53 55 57 59 60 62 63 65 64 66 70 72 72 71 73 74 74 75 77 80 81 82 86 92 96 100 103 105
38 40 42 44 46 47 48 47 47 47 47 48 50 51 53 54 56 58 61 66 68 67 68 70 71 72 73 75 75 75 76 78 81 83 86 90 96 100 105 109 112 116 118
40 41 43 44 45 45 45 45 46 47 48 50 51 52 53 55 58 61 66 69 71 72 71 70 72 76 78 80 81 81 83 85 89 95 99 104 109 113 116 114 107 95 88
40 41 42 41 41 42 44 46 47 49 51 51 51 53 56 58 62 66 68 70 72 73 73 75 78 80 81 83 85 88 92 97 102 108 112 116 117 112 99 83 72 60 56
40 41 41 41 42 44 46 47 48 50 51 51 53 56 59 63 66 68 70 70 72 75 78 76 78 81 85 89 92 97 103 108 113 117 113 102 90 77 66 51 48 46 48
40 41 42 43 45 46 46 46 49 51 51 53 57 60 63 65 67 68 70 72 75 76 78 79 80 84 91 97 101 107 113 117 108 96 82 73 64 48 45 40 44 46 43
39 41 44 44 45 45 44 49 51 51 53 56 60 63 66 67 68 70 73 74 75 77 80 83 86 93 99 105 109 114 106 92 81 71 59 48 45 38 40 42 42 39 37
40 42 43 45 46 43 49 52 51 54 57 60 63 64 66 68 69 71 73 75 78 82 85 90 95 100 108 112 107 94 81 72 58 45 44 42 36 39 42 41 38 36 39
41 43 46 46 44 46 51 51 54 57 59 61 63 65 67 69 70 71 75 79 83 87 93 98 104 109 106 95 84 73 63 50 41 43 37 37 37 39 40 39 36 36 40
44 45 44 46 45 50 52 55 57 59 60 62 63 66 68 69 72 76 80 84 90 95 100 107 109 99 87 74 60 48 39 36 37 38 34 33 38 38 39 37 33 38 39
44 43 42 44 48 51 54 56 58 59 61 63 65 66 68 73 77 80 85 89 94 103 107 101 90 76 58 45 38 40 41 39 36 38 38 33 38 39 39 36 34 36 35
40 40 43 48 51 51 55 56 58 60 62 63 64 68 73 77 81 85 88 95 103 101 91 77 61 46 42 44 44 42 39 35 34 37 41 34 37 37 36 35 32 32 26
39 43 46 48 50 52 54 56 58 60 61 63 67 72 76 81 84 89 97 102 98 82 63 51 47 46 46 46 46 44 41 38 35 32 41 36 37 37 33 34 30 26 22
42 44 46 47 50 53 55 57 58 58 62 67 72 76 81 84 89 97 100 93 74 56 48 50 49 47 46 45 47 47 46 44 41 36 41 35 35 39 24 34 28 23 22

GFSMA_500_spd_018.txt.gz
Wind_Speed
30 28 29 29 28 31 32 33 34 34 36 36 35 34 34 34 32 31 32 33 33 31 30 32 32 34 35 34 32 30 30 30 30 30 31 33 35 37 39 39 40 41 42
33 30 30 31 30 30 30 32 34 35 35 35 35 35 36 34 33 33 34 34 34 33 33 33 34 35 35 35 35 34 33 34 34 36 38 40 40 40 41 41 42 43 44
36 34 31 32 32 31 33 33 34 34 34 34 35 36 35 33 34 35 33 32 32 32 33 34 35 36 37 38 38 38 37 37 38 39 41 44 46 47 49 49 49 49 49
37 35 33 33 34 34 34 35 36 35 35 35 35 36 35 34 33 32 32 31 33 34 35 35 36 39 40 40 41 41 41 41 43 45 47 49 51 52 53 54 54 55 56
36 37 35 35 35 36 37 36 37 35 36 36 35 35 34 33 33 33 34 35 36 37 38 39 41 41 42 44 44 44 44 45 48 50 52 53 54 56 57 58 58 58 59
36 36 35 36 36 37 38 37 38 37 37 36 37 37 37 35 35 37 38 39 40 42 42 43 44 44 45 47 48 47 48 50 52 54 55 56 58 60 60 60 59 58 58
36 35 35 38 39 38 39 38 39 39 39 38 39 40 41 43 44 42 41 41 42 44 46 46 47 47 49 51 50 50 52 55 57 59 60 61 60 61 62 62 62 61 61
37 37 36 39 39 39 40 40 40 40 40 41 42 44 43 44 46 46 46 44 45 45 47 48 50 52 54 53 52 54 56 58 61 64 64 64 64 63 63 64 64 65 66
39 39 38 39 40 39 40 40 39 40 42 44 46 47 48 49 47 47 48 48 47 48 50 51 54 56 57 56 57 59 63 65 66 66 66 65 67 68 69 70 71 71 72
38 39 39 40 41 40 40 41 42 42 43 44 47 49 50 50 50 48 49 48 49 50 52 54 56 57 58 60 63 66 69 68 68 68 70 72 74 73 73 73 74 75 76
37 38 39 40 40 41 42 42 42 44 46 47 49 50 52 51 50 49 47 49 50 53 56 56 55 56 59 63 66 68 69 70 72 74 74 74 75 76 77 78 78 79 79
38 37 39 41 40 40 41 43 44 46 49 50 51 51 50 50 49 49 49 49 51 52 54 56 59 62 65 66 67 68 71 72 72 73 75 78 80 80 80 81 81 82 83
39 38 38 41 40 41 42 43 45 46 48 49 48 48 48 48 50 52 54 55 55 52 54 58 63 67 68 69 69 69 71 72 74 76 78 79 81 83 84 86 87 89 91
39 38 39 40 41 42 43 45 45 46 46 45 47 49 50 51 53 54 56 57 56 57 60 62 64 66 67 69 71 73 75 74 75 77 79 82 85 88 92 94 97 100 104
38 40 40 40 41 42 43 44 45 45 45 47 49 50 51 53 54 55 56 58 63 65 63 63 65 66 69 71 73 75 76 77 80 83 87 92 96 99 103 106 109 112 115
39 39 39 39 40 41 42 43 44 46 49 51 51 51 53 54 55 56 59 63 65 68 68 67 68 70 71 73 75 78 80 84 88 93 99 104 108 111 112 111 106 98 86
39 37 37 38 40 41 42 43 44 47 50 51 51 55 54 55 58 61 63 66 66 68 69 68 70 72 74 77 79 83 87 93 99 104 109 112 113 107 96 85 74 62 54
38 36 38 38 38 40 41 43 45 50 49 50 55 55 56 59 62 64 65 65 67 68 70 71 72 74 77 82 86 91 98 103 109 110 107 99 90 77 66 52 42 41 37
37 37 38 38 39 39 40 43 48 53 50 54 55 57 60 62 64 65 66 66 67 68 72 75 76 80 84 90 96 101 107 107 99 91 81 69 55 44 41 41 37 34 37
37 38 38 39 38 39 40 48 51 53 54 56 59 61 63 64 65 65 65 66 69 73 76 80 83 87 94 100 105 106 95 81 65 55 46 43 40 44 40 36 37 36 34
37 38 40 45 46 43 48 47 50 53 56 59 60 62 63 64 64 64 66 70 73 77 81 84 89 96 102 105 101 80 60 45 45 49 46 44 45 40 38 40 37 35 34
35 39 41 42 45 44 46 46 51 57 59 59 60 62 62 63 64 67 71 74 80 84 87 92 98 103 103 89 68 51 46 47 45 48 48 41 43 36 40 41 40 36 36
34 39 40 43 43 43 46 51 56 56 58 59 60 60 61 63 67 70 74 78 83 90 96 101 104 98 78 60 53 52 54 52 50 47 46 38 40 38 42 41 43 36 36
39 43 37 37 41 46 51 52 54 56 58 58 59 60 63 66 70 74 77 83 91 97 102 100 88 69 56 54 55 53 53 51 48 48 49 42 38 35 38 40 44 36 36
38 37 39 41 46 48 51 52 54 55 56 57 60 63 66 71 75 80 85 92 98 101 91 74 59 53 52 51 52 51 49 48 46 45 50 47 41 37 38 38 45 38 34
32 37 41 44 47 49 50 51 53 54 54 59 63 67 72 77 81 86 93 97 97 80 62 50 51 49 47 47 46 47 47 44 43 38 43 39 38 40 33 33 41 41 32

GFSMA_500_spd_021.txt.gz
Wind_Speed
28 24 26 24 28 29 29 29 27 27 28 30 32 34 34 35 35 35 35 33 32 32 33 34 35 32 31 31 30 30 29 31 33 32 31 30 29 31 32 33 34 35 37
27 29 28 29 29 32 32 30 29 30 31 32 32 32 33 34 34 35 36 34 33 33 33 32 32 31 30 30 30 31 32 33 34 36 36 36 35 36 37 39 40 40 40
32 34 31 32 32 32 32 32 32 33 34 33 32 32 32 31 32 33 33 34 32 31 30 31 30 31 31 32 32 33 34 35 37 38 39 40 40 41 42 44 45 46 47
31 33 31 32 33 33 32 31 31 33 34 35 33 32 31 31 31 32 32 32 32 32 32 32 33 34 35 36 36 36 37 38 39 41 42 42 44 45 47 48 49 50 51
32 31 31 33 33 32 33 33 33 34 34 35 35 34 33 32 33 34 34 34 36 37 38 38 38 39 40 40 40 40 41 42 43 45 45 45 47 49 51 52 54 55 55
31 31 32 34 34 32 33 34 35 36 35 35 36 36 36 35 36 38 39 41 43 43 43 43 43 43 44 44 44 44 45 46 48 49 48 49 51 53 55 57 58 58 58
31 32 33 33 35 34 34 35 36 37 36 36 37 36 37 39 41 42 42 43 44 44 46 46 46 46 45 45 46 47 49 52 52 52 52 52 54 56 60 61 61 60 60
35 36 36 36 36 38 37 37 38 38 38 38 38 37 38 41 43 45 45 47 47 47 47 47 47 47 47 48 48 51 54 54 53 54 55 57 60 62 62 62 62 62 62
34 33 34 37 38 40 38 38 38 39 39 40 41 40 41 41 43 46 48 50 50 50 48 47 48 48 49 51 54 56 55 55 56 58 62 63 63 63 63 64 65 66 66
36 35 36 34 36 37 38 38 38 39 41 41 41 42 43 45 46 47 50 51 50 49 49 48 49 50 53 56 57 56 56 59 62 64 64 65 66 67 68 69 69 70 70
37 37 38 35 35 35 38 37 38 40 41 42 43 44 45 46 48 47 47 47 47 48 49 51 53 55 57 56 56 58 62 65 67 66 67 68 69 70 71 72 74 75 77
39 38 38 36 36 36 38 38 40 41 42 43 43 44 45 47 48 47 46 46 46 48 51 54 56 57 57 58 61 64 64 64 65 66 66 69 71 73 75 76 77 78 79
41 38 38 39 38 37 39 38 40 41 42 43 44 44 45 47 48 50 52 52 51 49 50 52 55 57 61 64 65 66 66 67 67 68 70 72 74 76 76 78 80 82 84
42 39 40 41 41 39 38 37 40 41 42 42 43 44 46 49 51 53 54 55 54 53 51 54 57 61 64 66 66 67 68 69 69 70 72 74 76 78 81 84 87 91 95
42 40 41 42 42 40 37 37 40 42 43 43 43 46 48 51 53 54 56 57 57 55 55 58 61 62 63 65 66 68 70 71 72 74 76 79 83 87 90 94 98 102 106
42 41 41 41 41 38 37 38 41 42 43 43 45 48 50 53 54 56 58 56 59 61 63 64 64 64 64 64 66 68 70 73 76 80 85 89 93 97 101 104 109 111 108
43 40 39 40 38 37 37 38 41 43 43 44 46 49 54 56 56 58 57 61 63 65 66 66 67 67 67 68 69 72 75 79 83 89 95 99 103 106 107 102 93 82 73
40 39 38 38 37 37 37 39 41 43 42 45 50 54 57 59 57 58 62 63 64 65 66 66 67 68 70 72 76 79 84 89 95 101 105 107 105 89 76 61 49 46 46
37 36 39 37 37 36 38 40 42 43 44 50 55 56 58 59 61 62 63 64 65 66 66 67 69 71 75 79 83 88 93 99 104 107 99 83 69 53 50 51 51 50 45
35 36 35 35 35 37 38 41 44 49 51 56 55 55 59 63 63 63 63 64 64 65 68 71 73 77 81 86 92 96 101 106 95 80 66 58 56 56 54 51 49 46 40
34 34 33 33 34 38 41 44 46 49 52 52 55 58 61 61 63 63 64 64 66 69 72 75 77 82 88 95 101 105 101 82 59 57 55 56 60 56 55 52 49 45 39
32 32 31 33 36 38 43 44 48 48 51 55 58 58 60 62 62 63 64 67 70 75 79 82 86 92 99 104 102 89 67 55 50 55 55 53 57 51 51 51 48 46 43
32 31 31 31 38 46 47 45 46 50 53 56 56 58 60 61 61 64 66 70 74 79 85 90 94 100 102 95 74 57 54 51 48 49 47 43 47 45 48 48 49 48 48
36 41 33 38 42 42 41 44 48 52 54 55 57 59 59 61 64 66 69 73 78 85 91 98 103 97 78 59 55 50 45 43 44 47 51 44 44 41 41 41 45 47 50
40 35 40 39 36 41 45 47 49 52 54 56 58 58 61 63 66 69 73 78 85 94 98 97 82 62 52 50 47 44 47 47 47 48 54 49 44 41 38 40 41 43 48
30 27 30 34 38 43 46 48 51 53 55 54 57 60 63 66 70 75 80 86 93 97 86 63 51 48 46 45 47 50 51 51 51 47 51 45 41 41 32 34 36 40 44

GFSMA_500_spd_024.txt.gz
Wind_Speed
30 27 24 25 23 25 26 28 28 28 28 27 28 29 32 33 33 34 35 36 37 36 37 35 35 34 34 34 33 32 32 30 29 28 28 29 31 32 32 30 29 29 30
29 28 28 26 29 30 29 29 29 28 29 30 31 32 32 32 32 31 31 32 33 35 34 35 35 34 33 32 32 31 31 31 31 31 31 32 33 35 36 37 36 35 36
28 28 30 30 30 28 29 30 30 29 30 31 32 33 32 31 32 31 30 29 30 31 33 33 32 32 33 33 34 34 35 35 35 36 36 36 36 38 40 40 41 41 40
29 29 29 29 30 30 30 29 30 30 31 32 34 34 33 32 32 32 31 30 30 31 31 33 33 34 36 37 37 39 39 40 40 40 41 41 41 41 43 44 44 45 45
32 31 30 30 31 33 32 32 31 30 31 33 34 35 35 34 33 33 34 32 32 34 37 40 42 42 43 43 42 43 44 46 45 44 44 44 45 46 46 48 48 49 50
34 32 32 31 31 32 33 33 32 32 33 35 36 36 36 36 35 35 36 37 39 40 42 43 43 45 46 46 47 48 48 47 46 46 47 48 49 50 50 51 52 53 55
31 33 34 35 34 34 34 35 36 36 37 37 37 37 37 37 38 37 37 39 41 43 45 45 47 48 49 48 48 49 49 49 49 49 50 52 53 53 52 53 55 56 58
32 31 32 32 31 33 36 38 38 37 37 38 38 37 37 38 39 40 40 40 41 44 46 47 49 50 51 52 51 50 50 51 52 52 55 57 56 55 55 56 59 62 64
38 35 33 33 31 31 34 36 36 37 38 37 37 38 39 40 40 40 42 43 46 47 48 49 49 49 48 49 49 49 50 52 55 57 58 58 58 58 61 64 65 64 64
38 37 36 36 35 34 34 35 34 35 37 38 37 38 39 40 41 41 43 45 46 47 47 48 48 48 49 50 52 53 55 56 58 58 58 60 62 65 67 66 66 66 66
44 42 39 37 37 38 36 34 35 35 37 38 39 39 40 40 42 43 44 45 45 46 48 50 52 52 53 54 55 55 56 56 57 59 63 65 67 67 67 68 68 69 70
50 45 45 41 40 40 39 36 36 37 38 39 40 41 41 42 43 44 44 45 46 48 51 53 54 55 55 55 56 56 57 59 61 63 64 66 68 69 70 71 73 75 75
49 47 47 46 42 41 41 40 39 39 38 39 40 41 43 44 45 46 46 48 48 49 50 52 55 56 56 57 58 60 62 64 64 65 66 67 69 70 72 73 74 75 76
48 49 47 46 44 42 43 42 41 41 40 41 42 43 44 45 46 47 49 50 51 52 54 55 55 55 57 60 62 64 66 67 67 68 70 71 71 72 73 74 76 78 81
48 48 46 45 45 42 43 43 43 41 40 42 43 44 45 46 48 49 52 54 56 57 57 57 57 59 60 62 64 65 66 67 69 70 72 73 74 77 79 81 84 86 90
47 49 44 44 44 42 42 43 43 41 41 42 43 45 46 48 51 53 55 58 60 61 60 61 63 64 64 64 64 66 67 68 70 72 75 77 81 84 87 90 93 96 99
48 47 43 44 44 40 42 44 42 41 42 42 44 45 48 51 54 56 60 64 62 62 63 64 66 67 67 68 67 68 69 71 74 79 82 85 89 94 96 98 102 105 105
48 44 43 43 43 40 39 42 37 48 43 42 41 45 49 53 60 63 64 62 64 67 66 67 67 68 67 68 70 71 74 78 82 87 90 95 99 103 107 108 104 92 78
46 43 41 41 41 39 38 40 43 43 43 44 48 50 54 59 61 63 60 63 67 67 68 69 68 68 70 72 73 77 80 85 91 97 101 104 108 104 92 77 66 61 58
44 40 39 41 33 40 41 41 40 42 44 48 51 54 56 58 59 61 64 66 67 68 68 68 69 71 73 76 80 83 87 94 100 104 105 101 81 67 64 63 62 61 61
40 40 39 45 39 39 47 43 42 44 46 50 57 55 54 58 61 63 64 65 66 66 68 70 72 74 78 83 88 93 98 102 99 86 73 62 61 58 57 55 54 54 55
38 35 35 40 37 40 41 46 45 45 53 56 51 52 57 60 61 63 64 65 66 70 72 75 76 81 86 91 96 101 101 88 64 57 56 50 53 50 52 53 53 55 55
35 41 46 43 36 37 38 44 50 51 53 48 52 56 58 59 61 61 62 66 69 73 77 81 85 89 94 100 99 85 63 53 49 51 52 48 55 52 56 55 55 56 55
37 36 37 39 40 44 45 46 46 46 49 51 54 56 57 57 58 62 66 68 72 76 81 87 93 99 101 88 67 51 47 46 49 53 59 54 57 56 57 52 52 53 51
28 38 38 40 41 42 41 40 44 47 50 52 54 54 55 58 63 65 68 71 76 82 89 95 100 94 70 51 48 45 52 53 52 54 62 62 60 58 54 46 47 49 51
33 30 30 32 30 33 38 44 46 49 50 51 54 55 59 62 64 69 73 76 82 88 94 96 75 52 46 45 49 52 54 57 60 59 63 62 54 51 43 37 38 42 46